www.pogodaiklimat.ru

Погода и климат >> Архив погоды >> Россия >> Иркутская область >> Тырка


ПОГОДА в Тырке

  • Прогноз погоды в Тырке
  • Монитор погоды в Тырке

АРХИВ ПОГОДЫ в Тырке

Время (UTC), дата Ветер
(напр.,м/с)
 
Видим.   Явления Облачность Т
(С)
Тd
(С)
f
(%)
Тe
(С)
Тes
(С)
Комфортность P
(гПа)
Po
(гПа)
Тmin
(С)
Tmax
(С)
R
(мм)
R24
(мм)
S
(см)
15 9.09 штиль 0 н/о 3/3 600 м
[Sc diur, vesp]
+3.2 +2.4 94 +2 +2 1019.8 941.7
18 9.09 штиль 0 н/о туман на расстоянии ясно +0.1 -0.2 98 -1 -1 1020.8 941.8
21 9.09 штиль 0 н/о туман местами ясно -0.4 -0.7 98 -2 -2 1020.2 941.1
00 10.09 В 1 2000 м туман местами ясно -1.1 -1.1 100 -3 -2 1019.6 940.4 -1.8
03 10.09 СЗ 1 50 км 3/0
[Ci fib]
+11.0 +4.6 65 +11 +19 1014.0 938.5
06 10.09 ЮВ 1 50 км 10/0
[Ac trans Cs]
+18.4 +1.6 32 +20 +26 1008.6 935.3
09 10.09 Ю 2 20 км в посл. час ливневой дождь 10/10 600 м
[Cb cap]
+16.8 +5.1 46 +17 +17 1007.5 933.9
12 10.09 З 1 н/о {ливн. осадки} 10/10 600 м
[Cb cap]
+11.0 +8.6 85 +11 +11 1010.1 934.9 +19.3 0.1
15 10.09 штиль 0 н/о 9/3 600 м
[Cb cap Ac trans Ci fib]
+8.4 +5.5 82 +8 +8 1012.0 936.0
18 10.09 штиль 0 н/о 8/6 600 м
[Cb cap Ci fib]
+5.9 +4.5 91 +5 +5 1014.2 937.3
21 10.09 СВ 1 н/о 10/10 600 м
[Cb cap]
+6.3 +4.9 91 +5 +5 1015.1 938.3
00 11.09 штиль 0 50 км 10/10 600 м
[Cb cap]
+6.6 +5.2 91 +6 +6 1005.9 939.1 +4.2
03 11.09 В 1 50 км 10/10 600 м
[Cb cap]
+7.9 +3.2 72 +7 +7 1014.6 938.3
06 11.09 Ю 2 50 км 10/10 600 м
[Cb cap]
+12.1 +6.2 67 +11 +11 1012.2 937.1
09 11.09 штиль 0 50 км 10/10 600 м
[Cb cap]
+12.0 +7.7 75 +12 +12 1010.3 935.7
12 11.09 штиль 0 н/о ливневой дождь 10/10 600 м
[Cb cap]
+8.4 +7.1 92 +7 +7 1009.8 933.8 +13.2 8
15 11.09 З 1 н/о ливневой дождь 10/10 600 м
[Cb cap]
+8.0 +7.4 96 +7 +7 1009.9 933.9
18 11.09 штиль 0 н/о ливневой дождь 10/10 600 м
[Cb cap]
+7.4 +7.0 97 +6 +6 1008.9 932.8
21 11.09 З 1 н/о {ливн. осадки} 10/10 600 м
[Cb cap]
+6.7 +6.0 95 +6 +6 1008.8 932.5
00 12.09 В 1 50 км {ливн. осадки} 9/3 600 м
[Cb cap Ac trans Ci fib]
+7.7 +6.8 94 +7 +7 1009.2 933.3 +6.0 13
03 12.09 З 2 50 км 9/8 600 м
[Cb cap Ac trans]
+11.7 +6.4 70 +11 +12 1008.8 933.9
06 12.09 СЗ 2 50 км осадки на расстоянии 8/8 600 м
[Cb cap Ac trans]
+16.7 +9.9 64 +17 +18 1007.1 933.6
09 12.09 СЗ 3
{11}
50 км 5/5 600 м
[Cb cap]
+12.9 +4.4 56 +12 +13 1008.8 934.1
12 12.09 З 2 н/о 10/10 600 м
[Cb cap]
+9.0 +3.2 67 +8 +8 1012.2 936.3 +18.5
15 12.09 СЗ 3 н/о 10/10 600 м
[Cb cap]
+7.1 -0.1 60 +5 +5 1015.1 938.4
18 12.09 З 2 н/о 3/0
[Ac trans Ci fib]
+4.2 -1.3 67 +2 +2 1016.7 939.1
21 12.09 ЮЗ 2 н/о 8/8 600 м
[Cb cap]
+2.1 -1.9 75 -1 -1 1017.5 939.3
00 13.09 Ю 1 50 км 8/6 600 м
[Cb cap Ac trans Ci fib]
+1.8 -1.6 78 0 +1 1018.0 939.6 +0.5
03 13.09 Ю 2 50 км 9/8 600 м
[Cb cap Ac trans]
+5.7 -0.6 64 +4 +5 1015.9 938.7
06 13.09 З 4 20 км слаб. ливневой дождь 10/10 600 м
[Cb cap]
+6.0 +0.9 70 +2 +2 1014.1 937.2
09 13.09 З 3 50 км в посл. час ливневой дождь 9/8 600 м
[Cb cap Ac trans Ci fib]
+6.5 +2.6 76 +4 +4 1011.8 935.3
12 13.09 В 1 н/о {ливн. осадки} 10/4 600 м
[Cb cap Cs]
+3.8 +2.3 90 +2 +2 1011.9 934.6 +7.5 0.7
15 13.09 ЮВ 1 н/о 9/9 600 м
[Cb cap]
+3.5 +0.9 83 +2 +2 1012.2 934.8
18 13.09 Ю 1 н/о 9/9 600 м
[Cb cap]
+2.9 +0.5 84 +1 +1 1011.1 933.5
21 13.09 штиль 0 н/о 9/9 600 м
[Cb cap]
+0.7 -0.7 90 -1 -1 1009.9 931.9
00 14.09 СЗ 1 50 км {ливн. осадки} 9/8 600 м
[Cb cap Ac trans]
+2.4 +1.1 91 +1 +1 1009.7 932.2 +0.5 2
03 14.09 З 2 50 км {ливн. осадки} 9/9 600 м
[Cb cap]
+4.2 +1.1 80 +2 +2 1009.0 932.0
06 14.09 З 6-11
{11}
20 км в посл. час крупа {ливн. осадки} 9/8 600 м
[Cb cap Ac trans Ci fib]
+3.8 -2.8 62 -1 -1 1010.9 933.6
09 14.09 З 7-14
{14}
50 км в посл. час крупа {ливн. осадки} 8/5 600 м
[Cb cap Ac trans Ci sp]
+2.5 -6.5 51 -3 -3 1013.5 935.6
12 14.09 З 6-11
{14}
н/о {ливн. осадки} 3/3 600 м
[Cb cap]
+0.9 -8.0 51 -5 -5 1016.6 938.0 +5.7 0.1
15 14.09 ЮВ 1 н/о ясно -2.2 -7.3 68 -4 -4 1020.5 940.8
18 14.09 В 1 н/о 8/0
[Ci]
-5.8 -7.6 87 -8 -8 1022.6 941.6
21 14.09 штиль 0 н/о ясно -8.1 -8.7 95 -9 -9 1022.9 941.2
00 15.09 ЮВ 1 50 км 1/1 600 м
[Sc]
-5.9 -7.8 86 -8 -7 1022.6 941.6 -0.9
03 15.09 Ю 2 50 км 10/0
[As op]
-0.1 -4.7 71 -3 -2 1020.4 941.3
06 15.09 З 1 50 км 10/3 600 м
[Cu hum Ac trans Ci sp]
+2.9 -3.6 62 +2 +5 1017.6 939.6
09 15.09 Ю 2 50 км 9/4 600 м
[Cu Sc As op]
+4.2 -2.9 60 +2 +2 1018.6 938.2
12 15.09 ЮВ 1 50 км 1/1 600 м
[Sc]
-5.9 -7.8 86 -8 -8 1022.6 941.6 -0.9
15 15.09 штиль 0 н/о в посл. час ливневой дождь 9/6 600 м
[Sc diur, vesp Ci fib]
+0.5 -0.1 96 -1 -1 1014.6 936.2
18 15.09 СЗ 1 н/о слаб. ливневой дождь 9/9 600 м
[Cb cap]
+1.4 +0.9 96 -1 -1 1013.1 935.1
21 15.09 штиль 0 н/о {ливн. осадки} 10/10 600 м
[Cb cap]
+1.5 +1.0 96 0 0 1012.1 934.2
00 16.09 З 1 20 км осадки на расстоянии {ливн. осадки} 10/10 600 м
[Cb cap]
+3.8 +2.6 92 +2 +2 1011.6 934.3 0.0 2
03 16.09 СЗ 5-10
{11}
50 км {ливн. осадки} 4/4 600 м
[Cb cap]
+5.8 +0.4 68 +2 +4 1013.1 936.2
06 16.09 СЗ 5
{11}
50 км {ливн. осадки} 6/6 600 м
[Cb cap]
+6.8 -4.0 46 +3 +5 1014.1 937.4
09 16.09 З 4
{10}
50 км осадки на расстоянии 6/6 600 м
[Cb cap]
+5.8 -2.9 54 +2 +3 1016.8 939.6
12 16.09 СЗ 1
{11}
н/о 8/8 600 м
[Cb cap]
+1.8 -3.3 69 0 0 1021.2 942.5 +8.0 0.0

 

Местоположение метеостанции Тырка (Иркутская область, Россия): широта 54.48 долгота 107.00 высота над уровнем моря 651 м.

В архиве по умолчанию представлена погода в Тырке за последнюю неделю. Архивные данные за месяц целиком и за предыдущие месяцы, начиная с января 2011 года, Вы можете получить, выбрав интересующий диапазон дат из раскрывающегося списка и нажав кнопку "Ввод!".


*Определитесь, кто Вы:
робот инопланетянин человек

Внимание! Время в таблицах - всемирное. Для получения местного времени необходимо прибавить поправку, которая равна 8 ч.

Смотрите также архив погоды в соседних городах и на ближайших метеорологических станциях:

Погода в Караме (Иркутская область, Россия) (84 км)
Погода в Качуге (Иркутская область, Россия) (91 км)
Погода в Солнечной (Иркутская область, Россия) (93 км)
Погода на Большом Ушканьем Острове (Бурятия, Россия) (120 км)
Погода в Жигалове (Иркутская область, Россия) (127 км)
Погода в Узуре (Иркутская область, Россия) (137 км)
Погода в Худжире (Иркутская область, Россия) (144 км)
Погода в Баргузинском Заповеднике (Бурятия, Россия) (163 км)
Погода в Усть-Баргузине (Бурятия, Россия) (176 км)
Погода в Даване (Бурятия, Россия) (182 км)

Пояснения к столбцам:

Ветер - указаны скорость ветра в м/с - средняя за 10 мин, порывы в срок и между сроками (в фигурных скобках) и направление, откуда дует ветер: С - северный, СВ - северо-восточный, В - восточный, ЮВ - юго-восточный, Ю - южный, ЮЗ - юго-западный, З - западный, СЗ - северо-западный.
Видимость - горизонтальная дальность видимости в метрах или километрах. При видимости от 1 до 10 км при отсутствии осадков обычно наблюдается дымка, при ухудшении видимости до 1 км и менее - туман. В сухую погоду видимость может ухудшаться дымом, пылью или мглою.
Явления - указаны атмосферные явления, наблюдавшиеся в срок или в последний час перед сроком; фигурными скобками обозначены явления, наблюдавшиеся между сроками (за 1-3 часа до срока); квадратными скобками обозначены град или гололедные отложения с указанием их диаметра в мм.
Облачность - указаны через наклонную черту общая и нижняя облачность в баллах и высота нижней границы облаков в метрах; квадратными скобками обозначены формы облаков: Ci - перистые, Cs - перисто-слоистые, Cc - перисто-кучевые, Ac - высококучевые, As - высокослоистые, Sc - слоисто-кучевые, Ns - слоисто-дождевые, Cu - кучевые, Cb - кучево-дождевые. Подробнее классификацию облаков см. в Атласе облаков (PDF).
T - Температура воздуха - температура, измеренная на высоте 2 м над землей.
Td - Температура точки росы - температура, при понижении до которой содержащийся в воздухе водяной пар достигнет насыщения.
f - Относительная влажность воздуха - влажноcть воздуха, измеренная на высоте 2 м над землей.
Te - Эффективная температура - температура, которую ощущает одетый по сезону человек в тени. Характеристика душности погоды. При расчете учитывается влияние влажности воздуха и скорости ветра на теплоощущения человека.
Tes - Эффективная температура на солнце - температура, которую ощущает человек, с поправкой на солнечный нагрев. Характеристика знойности погоды. Зависит от высоты солнца над горизонтом, облачности и скорости ветра. Ночью, в пасмурную погоду, а также при ветре 12 м/с и более поправка равна нулю.
P - Атмосферное давление - приведенное к уровню моря атмосферное давление.
Po - Атмосферное давление - измеренное на уровне метеостанции атмосферное давление.
Tmin - Минимальная температура - минимум температуры воздуха на высоте 2 м над землей.
Tmax - Максимальная температура - максимум температуры воздуха на высоте 2 м над землей.
R - Количество осадков - Количество выпавших осадков за период времени, мм. При наведении курсора мыши на число - период времени, за который выпало указанное количество осадков.
R24 - Количество осадков - Количество выпавших осадков за 24 часа, мм.
S - Снежный покров - Высота снежного покрова, см. При наведении курсора мыши на число - состояние снежного покрова и степень покрытия местности в баллах.